AAL1653 KMIA-KBOS

Flight info

Callsign AAL1653
Flight time N/A
Altitude 34000
Route FOLZZ3 ALYRA DCT GRUBR/N0465F350 Y299 SEELO DCT WAALT Q131 EARZZ DCT JAMIE Q133 JFK ROBUC3
Aircraft B738/M-VGDW/C

Departure

Time 2026-05-04 20:10
Airport Miami International Airport (KMIA)

Arrival

Time N/A
Airport Boston Logan International Airport (KBOS)
Time Latitude Longitude Altitude Speed Heading
2026-05-04 19:48 25.79775 -80.27941 15 ft 0 kts 178°
2026-05-04 19:59 25.79782 -80.27941 17 ft 3 kts 178°
2026-05-04 20:00 25.79802 -80.27942 16 ft 3 kts 178°
2026-05-04 20:00 25.79821 -80.27943 17 ft 3 kts 178°
2026-05-04 20:00 25.79840 -80.27944 17 ft 3 kts 178°
2026-05-04 20:00 25.79859 -80.27944 16 ft 3 kts 200°
2026-05-04 20:01 25.79872 -80.27931 16 ft 3 kts 266°
2026-05-04 20:01 25.79872 -80.27928 16 ft 0 kts 269°
2026-05-04 20:02 25.79872 -80.27931 16 ft 2 kts 271°
2026-05-04 20:03 25.79884 -80.27985 15 ft 11 kts 298°
2026-05-04 20:03 25.79936 -80.28070 13 ft 15 kts 304°
2026-05-04 20:03 25.80014 -80.28155 13 ft 15 kts 320°
2026-05-04 20:03 25.80039 -80.28241 14 ft 12 kts 267°
2026-05-04 20:04 25.80035 -80.28353 14 ft 15 kts 268°
2026-05-04 20:04 25.80032 -80.28467 14 ft 14 kts 266°
2026-05-04 20:04 25.80027 -80.28567 17 ft 12 kts 268°
2026-05-04 20:04 25.80023 -80.28662 20 ft 14 kts 267°
2026-05-04 20:05 25.80018 -80.28785 21 ft 23 kts 267°
2026-05-04 20:05 25.80006 -80.29043 19 ft 35 kts 266°
2026-05-04 20:05 25.79996 -80.29295 19 ft 31 kts 267°
2026-05-04 20:05 25.79986 -80.29526 12 ft 28 kts 268°
2026-05-04 20:06 25.79980 -80.29685 13 ft 14 kts 268°
2026-05-04 20:06 25.79975 -80.29786 12 ft 11 kts 266°
2026-05-04 20:06 25.79972 -80.29866 11 ft 10 kts 268°
2026-05-04 20:06 25.79970 -80.29922 10 ft 2 kts 269°
2026-05-04 20:07 25.79970 -80.29924 10 ft 0 kts 271°
2026-05-04 20:08 25.79971 -80.29933 10 ft 6 kts 278°
2026-05-04 20:08 25.79997 -80.30031 12 ft 18 kts 288°
2026-05-04 20:08 25.80046 -80.30110 13 ft 3 kts 343°
2026-05-04 20:09 25.80057 -80.30109 13 ft 3 kts 17°
2026-05-04 20:09 25.80073 -80.30066 12 ft 6 kts 83°
2026-05-04 20:09 25.80080 -80.29906 11 ft 50 kts 87°
2026-05-04 20:09 25.80107 -80.29261 18 ft 114 kts 87°
2026-05-04 20:10 25.80156 -80.28201 109 ft 158 kts 86°
2026-05-04 20:10 25.80206 -80.26922 656 ft 174 kts 85°
2026-05-04 20:10 25.80087 -80.25508 1252 ft 194 kts 95°
2026-05-04 20:10 25.79745 -80.24034 1913 ft 203 kts 109°
2026-05-04 20:11 25.79004 -80.22640 2422 ft 215 kts 118°
2026-05-04 20:11 25.78233 -80.21182 2752 ft 231 kts 115°
2026-05-04 20:11 25.77464 -80.19546 3191 ft 244 kts 114°
2026-05-04 20:11 25.76663 -80.17789 3466 ft 268 kts 113°
2026-05-04 20:12 25.75804 -80.15912 4070 ft 275 kts 115°
2026-05-04 20:12 25.74908 -80.14002 4747 ft 281 kts 116°
2026-05-04 20:12 25.74071 -80.12015 5299 ft 290 kts 105°
2026-05-04 20:12 25.73887 -80.10539 5623 ft 294 kts 83°
2026-05-04 20:13 25.74541 -80.08431 6352 ft 288 kts 53°
2026-05-04 20:13 25.75889 -80.06761 6869 ft 296 kts 42°
2026-05-04 20:13 25.77351 -80.05144 7465 ft 298 kts 41°
2026-05-04 20:13 25.78827 -80.03516 8131 ft 301 kts 41°
2026-05-04 20:14 25.80354 -80.01864 8776 ft 308 kts 41°
2026-05-04 20:14 25.81887 -80.00160 9467 ft 314 kts 41°
2026-05-04 20:14 25.83432 -79.98422 10179 ft 318 kts 41°
2026-05-04 20:14 25.84988 -79.96641 10829 ft 324 kts 43°
2026-05-04 20:15 25.86509 -79.94759 11231 ft 339 kts 46°
2026-05-04 20:15 25.88093 -79.92695 11385 ft 362 kts 47°
2026-05-04 20:15 25.89771 -79.90491 11544 ft 383 kts 47°
2026-05-04 20:15 25.91537 -79.88185 11824 ft 397 kts 47°
2026-05-04 20:16 25.93353 -79.85833 12324 ft 404 kts 46°
2026-05-04 20:16 25.95194 -79.83464 12960 ft 408 kts 46°
2026-05-04 20:16 25.97076 -79.81059 13502 ft 415 kts 46°
2026-05-04 20:16 25.98990 -79.78605 14060 ft 422 kts 46°
2026-05-04 20:17 26.00894 -79.76165 14594 ft 425 kts 46°
2026-05-04 20:17 26.02849 -79.73675 15098 ft 428 kts 46°
2026-05-04 20:17 26.04821 -79.71163 15576 ft 432 kts 46°
2026-05-04 20:17 26.06808 -79.68626 16047 ft 436 kts 46°
2026-05-04 20:18 26.08817 -79.66084 16504 ft 439 kts 43°
2026-05-04 20:18 26.11123 -79.63932 16967 ft 435 kts 27°
2026-05-04 20:18 26.13821 -79.62476 17460 ft 429 kts 14°
2026-05-04 20:18 26.16699 -79.61630 17930 ft 427 kts
2026-05-04 20:19 26.19619 -79.60929 18354 ft 431 kts
2026-05-04 20:19 26.22561 -79.60212 18744 ft 433 kts
2026-05-04 20:19 26.25511 -79.59482 19155 ft 435 kts
2026-05-04 20:19 26.28476 -79.58737 19550 ft 438 kts
2026-05-04 20:20 26.31459 -79.57980 19930 ft 441 kts
2026-05-04 20:20 26.34459 -79.57212 20310 ft 443 kts
2026-05-04 20:20 26.37474 -79.56439 20680 ft 446 kts
2026-05-04 20:20 26.40508 -79.55658 21053 ft 448 kts
2026-05-04 20:21 26.43556 -79.54872 21416 ft 451 kts
2026-05-04 20:21 26.46620 -79.54082 21779 ft 453 kts
2026-05-04 20:21 26.52773 -79.52496 22459 ft 459 kts
2026-05-04 20:22 26.55914 -79.51685 22793 ft 462 kts
2026-05-04 20:22 26.59051 -79.50875 23155 ft 464 kts
2026-05-04 20:22 26.62176 -79.50068 23468 ft 466 kts
2026-05-04 20:22 26.65348 -79.49248 23750 ft 469 kts
2026-05-04 20:23 26.68538 -79.48423 24039 ft 470 kts
2026-05-04 20:23 26.71728 -79.47597 24354 ft 471 kts
2026-05-04 20:23 26.74933 -79.46767 24652 ft 472 kts
2026-05-04 20:23 26.78139 -79.45936 24945 ft 474 kts
2026-05-04 20:24 26.81367 -79.45100 25203 ft 476 kts
2026-05-04 20:24 26.84610 -79.44259 25473 ft 478 kts
2026-05-04 20:24 26.87819 -79.43427 25753 ft 479 kts
2026-05-04 20:24 26.91089 -79.42577 26031 ft 480 kts
2026-05-04 20:25 26.94343 -79.41732 26288 ft 481 kts
2026-05-04 20:25 26.97616 -79.40881 26542 ft 483 kts
2026-05-04 20:25 27.00905 -79.40026 26801 ft 484 kts
2026-05-04 20:25 27.04148 -79.39182 27059 ft 485 kts
2026-05-04 20:26 27.07445 -79.38323 27356 ft 486 kts
2026-05-04 20:26 27.10763 -79.37458 27630 ft 487 kts
2026-05-04 20:26 27.14066 -79.36597 27889 ft 488 kts
2026-05-04 20:26 27.17374 -79.35734 28110 ft 489 kts
2026-05-04 20:27 27.20706 -79.34865 28342 ft 490 kts
2026-05-04 20:27 27.23990 -79.34006 28658 ft 489 kts
2026-05-04 20:27 27.27309 -79.33136 29057 ft 487 kts
2026-05-04 20:27 27.30603 -79.32272 29466 ft 484 kts
2026-05-04 20:28 27.33891 -79.31410 29832 ft 483 kts
2026-05-04 20:28 27.37166 -79.30553 30163 ft 482 kts
2026-05-04 20:28 27.40434 -79.29697 30417 ft 482 kts
2026-05-04 20:28 27.43707 -79.28840 30664 ft 483 kts
2026-05-04 20:29 27.46981 -79.27983 30917 ft 483 kts
2026-05-04 20:29 27.50211 -79.27136 31187 ft 482 kts
2026-05-04 20:29 27.53494 -79.26273 31467 ft 482 kts
2026-05-04 20:29 27.56777 -79.25411 31717 ft 482 kts
2026-05-04 20:30 27.60004 -79.24562 31956 ft 482 kts
2026-05-04 20:30 27.63281 -79.23700 32217 ft 482 kts
2026-05-04 20:30 27.66557 -79.22838 32514 ft 482 kts
2026-05-04 20:30 27.69826 -79.21977 32714 ft 483 kts
2026-05-04 20:31 27.73101 -79.21114 32951 ft 483 kts
2026-05-04 20:31 27.76373 -79.20251 33227 ft 482 kts
2026-05-04 20:31 27.79639 -79.19388 33511 ft 482 kts
2026-05-04 20:31 27.82900 -79.18526 33764 ft 481 kts
2026-05-04 20:32 27.86165 -79.17663 33983 ft 482 kts
2026-05-04 20:32 27.89440 -79.16799 34043 ft 484 kts
2026-05-04 20:32 27.95979 -79.15070 34072 ft 484 kts
2026-05-04 20:33 28.02536 -79.13330 34062 ft 483 kts
2026-05-04 20:33 28.09087 -79.11591 34049 ft 482 kts
2026-05-04 20:34 28.15636 -79.09852 34053 ft 482 kts
2026-05-04 20:34 28.22150 -79.08119 34052 ft 482 kts
2026-05-04 20:35 28.28706 -79.06374 34058 ft 483 kts
2026-05-04 20:35 28.35217 -79.04638 34062 ft 483 kts
2026-05-04 20:36 28.41764 -79.02890 34058 ft 483 kts
2026-05-04 20:36 28.48289 -79.01145 34065 ft 482 kts
2026-05-04 20:37 28.54833 -78.99393 34062 ft 483 kts
2026-05-04 20:37 28.61388 -78.97637 34069 ft 483 kts
2026-05-04 20:38 28.67936 -78.95879 34062 ft 483 kts
2026-05-04 20:38 28.74473 -78.94122 34067 ft 482 kts
2026-05-04 20:39 28.80964 -78.92376 34097 ft 482 kts
2026-05-04 20:39 28.87519 -78.90611 34077 ft 483 kts
2026-05-04 20:40 28.94083 -78.88840 34072 ft 483 kts
2026-05-04 20:40 29.00635 -78.87071 34070 ft 483 kts
2026-05-04 20:41 29.07154 -78.85307 34073 ft 483 kts
2026-05-04 20:41 29.13694 -78.83537 34084 ft 484 kts
2026-05-04 20:42 29.20258 -78.81756 34079 ft 483 kts
2026-05-04 20:42 29.26810 -78.79977 34080 ft 483 kts
2026-05-04 20:43 29.33338 -78.78203 34079 ft 484 kts
2026-05-04 20:43 29.39898 -78.76418 34083 ft 485 kts
2026-05-04 20:44 29.46465 -78.74627 34085 ft 485 kts
2026-05-04 20:44 29.53002 -78.72841 34076 ft 483 kts
2026-05-04 20:45 29.59541 -78.71052 34078 ft 481 kts
2026-05-04 20:45 29.66013 -78.69281 34106 ft 480 kts
2026-05-04 20:46 29.72511 -78.67501 34087 ft 479 kts
2026-05-04 20:46 29.78989 -78.65724 34085 ft 478 kts
2026-05-04 20:47 29.85476 -78.63942 34091 ft 478 kts
2026-05-04 20:47 29.91920 -78.62170 34130 ft 478 kts
2026-05-04 20:48 29.98416 -78.60382 34099 ft 479 kts
2026-05-04 20:48 30.04925 -78.58586 34093 ft 480 kts
2026-05-04 20:49 30.11382 -78.56802 34093 ft 480 kts
2026-05-04 20:49 30.17890 -78.55001 34092 ft 480 kts
2026-05-04 20:50 30.24400 -78.53198 34095 ft 481 kts
2026-05-04 20:50 30.30923 -78.51388 34096 ft 481 kts
2026-05-04 20:51 30.37397 -78.49590 34095 ft 481 kts
2026-05-04 20:51 30.43922 -78.47775 34096 ft 481 kts
2026-05-04 20:52 30.50442 -78.45960 34099 ft 481 kts
2026-05-04 20:52 30.55851 -78.44451 34096 ft 481 kts
2026-05-04 20:53 30.62334 -78.42640 34097 ft 480 kts
2026-05-04 20:53 30.69897 -78.40525 34100 ft 479 kts
2026-05-04 20:54 30.75337 -78.39002 34131 ft 479 kts
2026-05-04 20:54 30.81828 -78.37182 34109 ft 479 kts
2026-05-04 20:55 30.88262 -78.35375 34100 ft 478 kts
2026-05-04 20:55 30.94749 -78.33551 34100 ft 477 kts
2026-05-04 20:56 31.01180 -78.31740 34131 ft 477 kts
2026-05-04 20:56 31.07644 -78.29918 34114 ft 477 kts
2026-05-04 20:57 31.14102 -78.28095 34103 ft 476 kts
2026-05-04 20:57 31.20557 -78.26270 34107 ft 476 kts
2026-05-04 20:58 31.26955 -78.24459 34146 ft 476 kts
2026-05-04 20:58 31.33391 -78.22635 34117 ft 476 kts
2026-05-04 20:59 31.39844 -78.20802 34104 ft 476 kts
2026-05-04 20:59 31.46304 -78.18965 34112 ft 476 kts
2026-05-04 21:00 31.52715 -78.17140 34160 ft 476 kts
2026-05-04 21:00 31.59169 -78.15300 34118 ft 477 kts
2026-05-04 21:01 31.65627 -78.13456 34111 ft 477 kts
2026-05-04 21:01 31.72076 -78.11611 34112 ft 477 kts
2026-05-04 21:02 31.78495 -78.09702 34277 ft 474 kts 13°
2026-05-04 21:02 31.81179 -78.07735 35117 ft 471 kts 26°